Regional Weather Roundup
Issued by NWS Wakefield, VA

Home | Current Version | Previous Version | Text Only | Print | Product List | Glossary On
Versions: 1 2 3 4 5 6 7 8 9 10 11 12 13 14 15 16 17 18 19 20 21 22 23 24 25 26 27 28 29 30 31 32 33 34 35 36 37 38 39 40 41 42 43 44 45 46 47 48 49 50
122
ASUS41 KAKQ 201915
RWRAKQ

REGIONAL WEATHER ROUNDUP
NATIONAL WEATHER SERVICE WAKEFIELD VA
300 PM EDT WED SEP 20 2017

Note: "fair" indicates few or no clouds below 12,000 feet with no
significant weather and/or obstructions to visibility. * = Denotes
station may not report precipitation (e.g., rain,snow,etc.),
thunder or fog.

VAZ042-051-052>054-056-202000-
NORTHERN VIRGINIA

CITY           SKY/WX    TMP DP  RH WIND       PRES   REMARKS
WASH NATIONAL  MOSUNNY   87  63  44 NW3       29.93F
DULLES         MOSUNNY   85  61  44 NW9       29.95F
FORT BELVOIR   SUNNY     87  59  38 NW7       29.93F
QUANTICO       MOSUNNY   88  61  40 NW7       29.94F
FREDERICKSBRG* SUNNY     87  63  43 NW5       29.93F
STAFFORD*      SUNNY     87  55  34 NW9       29.98F
WARRENTON      SUNNY     88  58  35 N6        29.95F
CULPEPER*      SUNNY     87  64  45 N7        29.96S
MANASSAS*      SUNNY     87  62  43 VRB6      29.95F
LEESBURG*      SUNNY     86  63  45 N9        29.96F
WINCHESTER     SUNNY     82  61  47 W7        29.97S
FRONT ROYAL*   CLEAR     86  55  35 NW3       29.96F
LURAY*         CLEAR     86  59  39 CALM      29.97F
$$

VAZ048-049-060>072-079>083-202000-
CENTRAL AND SOUTH CENTRAL VIRGINIA

CITY           SKY/WX    TMP DP  RH WIND       PRES   REMARKS
RICHMOND       MOSUNNY   88  61  40 N10       29.94F
CHESTERFIELD*  NOT AVBL
PETERSBURG*    MOSUNNY   86  63  45 W6        29.95F
HANOVER        SUNNY     87  61  41 W10       29.95F
TAPPAHANNOCK*  SUNNY     88  48  25 NW5       29.94F
QUINTON*       FAIR      86  63  46 N6        29.93F
CHARLOTTSVILLE SUNNY     88  60  38 NW3       29.96F
GORDONSVILLE*  CLEAR     86  65  50 NE8       29.95F
ORANGE*        SUNNY     84  63  48 CALM      29.95F
LOUISA*        SUNNY     88  63  42 N7        29.96S
BUMPASS*       NOT AVBL
FARMVILLE*     SUNNY     89  64  43 CALM      29.94F
CREWE*         FAIR      87  66  49 NW7       29.95F
FORT PICKETT*  FAIR      87  65  49 W3G17     29.96F
CHASE CITY*    FAIR      86  66  50 NW5       29.96F
CLARKSVILLE*   FAIR      88  64  45 NW6       29.96F
SOUTH HILL*    MOSUNNY   86  68  56 CALM      30.01F
LAWRENCEVILLE* FAIR      86  66  52 NW5       29.95F
EMPORIA*       MOSUNNY   86  68  54 CALM      29.95F
$$

VAZ088>098-202000-
SOUTHEAST VIRGINIA

CITY           SKY/WX    TMP DP  RH WIND       PRES   REMARKS
NORFOLK        SUNNY     86  65  49 VRB5      29.92F
VIRGINIA BEACH MOSUNNY   85  63  47 N15       29.91F
NORFOLK NAVAL  MOSUNNY   85  65  51 W12       29.94F
WEST POINT*    SUNNY     88  57  35 W6        29.94F
SALUDA*        FAIR      83  67  58 NW8       29.93S
NEWPORT NEWS   SUNNY     87  62  43 NW8G20    29.93F
LANGLEY AFB    SUNNY     86  64  48 NW10      29.92F
FORT EUSTIS    SUNNY     88  66  47 NW7       29.91F
WILLIAMSBURG*  SUNNY     91  66  43 NW7       29.94F
HR EXEC AP*    FAIR      85  67  54 NW7       29.94F
FRANKLIN*      SUNNY     85  65  50 NW5       29.94F
US460-WAKEFLD  MOSUNNY   86  63  45 VRB6      29.94F
$$

VAZ020-022-025-037-045-202000-
WEST CENTRAL AND SOUTHWEST VIRGINIA

CITY           SKY/WX    TMP DP  RH WIND       PRES   REMARKS
STAUNTON*      CLOUDY    82  62  50 CALM      30.01F
WAYNESBORO*    CLOUDY    80  66  63 CALM      30.01F
HOT SPRINGS VA HVY RAIN  67  58  73 N10G18    30.15S
LYNCHBURG      SUNNY     86  59  39 CALM      29.99F
DANVILLE       SUNNY     88  66  48 NW5       29.97F
SOUTH BOSTON*  FAIR      88  65  46 N3        29.96F
MARTINSVILLE   MOSUNNY   74  72  92 CALM      30.02F
ROANOKE        LGT RAIN  79  67  66 CALM      30.02F
BLACKSBURG     SUNNY     80  65  59 W6        30.09S
DUBLIN*        MOSUNNY   75  65  69 SW9       30.08F
MARION*        CLOUDY    80  60  50 W8        30.12F
HILLSVILLE*    MOSUNNY   76  55  48 NW10      30.09F
RICHLANDS*     FAIR      77  60  55 W6        30.12F
WISE*          MOSUNNY   79  55  44 CALM      30.13F
ABINGDON*      PTSUNNY   83  61  46 NW7       30.09F
$$

MDZ021>025-VAZ099-100-202000-
SOUTHERN MARYLAND AND THE DELMARVA PENINSULA

CITY           SKY/WX    TMP DP  RH WIND       PRES   REMARKS
PATUXENT RIVER MOSUNNY   86  65  49 NW13      29.92F
BAY BRIDGE APT SUNNY     82  68  61 NW6       29.91F
LEONARDTOWN    SUNNY     84  64  51 W6        29.94F
DOVER          MOSUNNY   83  83 100 NW8       29.87F HX 101
GEORGETOWN     PTSUNNY   84  67  56 NW10G17   29.90S
EASTON         PTSUNNY   82  66  57 NW10      29.95S
CAMBRIDGE      MOSUNNY   81  66  61 NW10G16   29.91F
SALISBURY      PTSUNNY   83  68  60 NW12      29.89F
OCEAN CITY     PTSUNNY   84  70  62 N13       29.88F
WALLOPS ISLAND PTSUNNY   82  70  66 W12       29.90S
ACCOMACK*      MOSUNNY   79  69  71 NW13      29.91F
$$

NCZ012>017-030>032-202000-
NORTH CENTRAL AND EASTERN NORTH CAROLINA

CITY           SKY/WX    TMP DP  RH WIND       PRES   REMARKS
ROANOKE RAPIDS FAIR      86  70  58 MISG      29.95F
RALEIGH        MOSUNNY   90  63  40 VRB3      29.96F
ELIZABETH CITY SUNNY     87  65  47 NW13      29.93F
AHOSKIE*         N/A     84  69  60 CALM      29.94F
EDENTON*       SUNNY     87  69  53 CALM      29.94F
CURRITUCK*     SUNNY     86  63  46 NW9       29.94S
KILL DEVIL HLS SUNNY     82  64  55 CALM      29.92S
MANTEO         SUNNY     82  67  59 NW8G16    29.94S
CAPE HATTERAS  SUNNY     84  72  67 W8        29.94F
TARBORO*       NOT AVBL
GOLDSBORO      SUNNY     89  69  52 W7        29.94F
WASHINGTON     PTSUNNY   87  68  53 W7        29.95S
GREENVILLE     MOSUNNY   88  70  55 W8        29.96F
NEW BERN       SUNNY     89  68  49 W7        29.96F
WILMINGTON     SUNNY     90  65  43 W10       29.96F
$$

VAZ048-202000-
ELSEWHERE

CITY           SKY/WX    TMP DP  RH WIND       PRES   REMARKS
HARRISBURG PA  MOSUNNY   85  61  44 NW12      29.93S
BALTIMORE      MOSUNNY   86  65  49 NW7       29.91F
ANNAPOLIS      SUNNY     87  67  51 NW8       29.91F
ANDREWS AFB    SUNNY     85  58  39 NW10      29.93S
PHILADELPHIA   PTSUNNY   85  65  51 N14G22    29.88F
HENDERSON NC   SUNNY     85  61  44 W9        29.97F
GREENSBORO     MOSUNNY   84  65  52 W8        29.99F
ROCKY MOUNT    MOSUNNY   87  69  54 N6        29.95F
$$

VAZ100-202000-
MARINE

STATION/POSITION TIME  TEMP    WIND        PRES    WAVE   SWELL
                       AIR SEA DIR/SP/G            HT/PER HT/PER
                 (UTC) (F)     (DEG/KT/KT) (MB)    (FT/S) (FT/S)
BRANDYWINE LGT   1836   77     330/ 12/ 15 1012.2F
CAPE MAY NJ      1848   78 74  320/ 10/ 12 1011.2F
LEWES DE         1848   77 73  350/  8/ 12 1011.9F
15NM E FENWICK I 1850   75 71  310/ 14/ 16 1012.0F   6/ 9   5/ 9
OCEAN-CITY-INLET 1848   80 74  350/  9/ 12 1012.2F
WACHAPREAGUE VA  1848   83 77  280/  5/ 12 1012.6F
THOMAS POINT MD  1900   78 76  140/  5/  6   N/A
GOOSES REEF MD   1900   79 76   30/  4/  4 1014.3
COVE POINT MD    1848   77      20/  5/  6 1013.8F
SOLOMONS ISLAND  1848   82 76  300/  5/  8 1012.7F
BISHOPS HEAD MD  1848   77 76  290/ 12/ 15 1013.2F
PINEY POINT MD   1848          310/ 13/ 14   N/A
POTOMAC MD       1900   78 76  300/ 10/ 12 1012.2    1/ 2
CAMBRIDGE MD     1836   81 76              1013.9F
LEWISETTA VA     1848   81 76  340/  7/ 10 1013.2F
RAPPAHANNOCK LGT 1848          300/ 11/ 12 1013.7F
STINGRAY PT      1900   80 76  330/  8/ 10 1013.6    1/ 2
YORK RVR RNG VA  1848   80     330/  6/  8 1013.8F
YORKTOWN VA      1848   81 76  310/ 10/ 12 1013.1F
JAMESTOWN VA     1900      79  330/  6/ 10   N/A     0
DOMINION TERM VA 1848   79     300/  8/  9 1013.6F
KIPTOPEKE VA     1848      75  320/  8/  9   N/A
CHES BAY BRIDGE  1848   79 76  330/ 10/ 11 1013.2F
CAPE HENRY VA    1848   79     310/ 12/ 13   N/A
WILLOUBY STN VA  1848   81     280/ 10/ 12 1013.4F
S CRANEY ISL VA  1848   83     310/ 10/ 14 1013.3F
CAPE HENRY BUOY  1830      74                N/A     4/11   2/11
1ST LANDING BUOY 1900   78 76              1013.2    2/ 4
64NM E OF VA BCH 1850   71 71  310/ 12/ 16 1013.0F   8/10   8/10
DUCK PIER NC     1848   82 75  330/ 14/ 17 1012.8F
44100 DUCK FRF   1835      75                N/A     6/11   3/11
44056 DUCK FRF   1830      76                N/A     6/10   3/11
OREGON INLET NC  1836   82 74  290/ 10/ 15 1013.3F
HATTERAS NC      1848   80 75  280/ 10/ 12 1013.9F
DIAMOND SHLS NC  1850   77 76  270/  6/  8 1014.2F   5/10   5/10
CAPE LOOKOUT NC  1900   82     230/ 10/ 12 1014.1F
$$




USA.gov is the U.S. government's official web portal to all federal, state and local government web resources and services.